Tracking 19245 objects as of 19-Aug-2018
HD Live streaming from Space Station
objects crossing your sky now

EKRAN 1

Track EKRAN 1 now!
EKRAN 1 is classified as:


NORAD ID: 9503
Int'l Code: 1976-107A
Perigee: 35,527.6 km
Apogee: 36,048.2 km
Inclination: 10.4 °
Period: 1,435.8 minutes
Semi major axis: 42158 km
RCS: 3.5481 m2 (large)
Launch date: October 26, 1976
Source: Commonwealth of Independent States (former USSR) (CIS)
Launch site: TYURATAM MISSILE AND SPACE COMPLEX (TTMTR)
aabbcc
Your satellite tracking list
Your tracking list is empty




NASA's NSSDC Master Catalog

Two Line Element Set (TLE):
1  9503U 76107A   18229.76924243 +.00000066 +00000-0 +00000-0 0  9999
2  9503 010.4212 309.1491 0061743 100.1456 247.9369 01.00292678169825
Source of the keplerian elements: AFSPC